| time (UTC) | temp F | wind direction | speed MPH | gust MPH | rain 1hr in | rain 24hr in | rain mn in | humidity % | barometer mb |
| 20260831103002 | 65 | 6 | 0.0 | 3.0 | 0.00 | 0.17 | 0.17 | 95 | 1019.2 |
| 20260831102002 | 65 | 68 | 0.0 | 3.0 | 0.00 | 0.17 | 0.17 | 95 | 1019.0 |
| 20260831101003 | 65 | 333 | 1.0 | 3.0 | 0.00 | 0.17 | 0.17 | 95 | 1018.9 |
| 20260831100002 | 65 | 47 | 0.0 | 3.0 | 0.00 | 0.17 | 0.17 | 95 | 1018.8 |
| 20260831095002 | 66 | 8 | 1.0 | 4.0 | 0.00 | 0.17 | 0.17 | 96 | 1018.6 |
| 20260831094002 | 65 | 48 | 1.0 | 4.0 | 0.00 | 0.17 | 0.17 | 96 | 1018.4 |
| 20260831093024 | 66 | 48 | 0.0 | 5.0 | 0.00 | 0.17 | 0.17 | 96 | 1018.4 |
| 20260831092003 | 66 | 47 | 2.0 | 6.0 | 0.00 | 0.17 | 0.17 | 96 | 1018.5 |
| 20260831091003 | 66 | 352 | 3.0 | 7.0 | 0.00 | 0.17 | 0.17 | 96 | 1018.6 |
| 20260831090003 | 66 | 345 | 4.0 | 8.0 | 0.00 | 0.17 | 0.17 | 97 | 1018.4 |
| 20260831085002 | 66 | 337 | 4.0 | 8.0 | 0.00 | 0.17 | 0.17 | 96 | 1018.4 |
| 20260831084023 | 66 | 340 | 6.0 | 6.0 | 0.00 | 0.17 | 0.17 | 96 | 1018.3 |
| 20260831083002 | 66 | 341 | 6.0 | 6.0 | 0.00 | 0.17 | 0.17 | 96 | 1018.2 |
| 20260831082002 | 67 | 7 | 3.0 | 6.0 | 0.00 | 0.17 | 0.17 | 96 | 1018.1 |
| 20260831081003 | 67 | 350 | 5.0 | 8.0 | 0.00 | 0.17 | 0.17 | 95 | 1018.1 |
| 20260831080002 | 67 | 6 | 2.0 | 8.0 | 0.00 | 0.17 | 0.17 | 95 | 1017.8 |
| 20260831075003 | 67 | 347 | 6.0 | 8.0 | 0.00 | 0.17 | 0.17 | 95 | 1017.7 |
| 20260831074024 | 68 | 299 | 2.0 | 7.0 | 0.00 | 0.17 | 0.17 | 95 | 1017.6 |
| 20260831073003 | 68 | 350 | 5.0 | 7.0 | 0.00 | 0.17 | 0.17 | 95 | 1017.5 |
| 20260831072003 | 68 | 323 | 4.0 | 7.0 | 0.00 | 0.17 | 0.17 | 95 | 1017.3 |
| 20260831071003 | 68 | 312 | 5.0 | 9.0 | 0.00 | 0.17 | 0.17 | 95 | 1017.4 |
| 20260831070003 | 69 | 336 | 3.0 | 9.0 | 0.00 | 0.17 | 0.17 | 95 | 1017.3 |
| 20260831065003 | 69 | 340 | 2.0 | 4.0 | 0.00 | 0.17 | 0.17 | 94 | 1017.3 |
| 20260831064003 | 69 | 295 | 1.0 | 5.0 | 0.00 | 0.17 | 0.17 | 94 | 1017.4 |
| 20260831063003 | 69 | 302 | 3.0 | 5.0 | 0.00 | 0.17 | 0.17 | 94 | 1017.2 |
| 20260831062003 | 69 | 327 | 1.0 | 3.0 | 0.00 | 0.17 | 0.17 | 93 | 1017.2 |
| 20260831061003 | 69 | 266 | 1.0 | 3.0 | 0.00 | 0.17 | 0.17 | 93 | 1017.2 |
| 20260831060003 | 70 | 69 | 0.0 | 2.0 | 0.00 | 0.17 | 0.17 | 93 | 1017.0 |
| 20260831055003 | 70 | 300 | 0.0 | 3.0 | 0.00 | 0.17 | 0.17 | 94 | 1017.1 |
| 20260831054003 | 70 | 100 | 0.0 | 5.0 | 0.00 | 0.17 | 0.17 | 94 | 1017.1 |
| 20260831053003 | 70 | 163 | 3.0 | 5.0 | 0.01 | 0.17 | 0.17 | 95 | 1016.9 |
| 20260831052003 | 70 | 197 | 0.0 | 5.0 | 0.01 | 0.17 | 0.17 | 95 | 1017.4 |
| 20260831051003 | 70 | 26 | 2.0 | 6.0 | 0.02 | 0.17 | 0.17 | 95 | 1017.1 |
| 20260831050003 | 70 | 11 | 4.0 | 6.0 | 0.17 | 0.17 | 0.17 | 95 | 1016.9 |
| 20260831045003 | 70 | 164 | 2.0 | 6.0 | 0.17 | 0.17 | 0.17 | 94 | 1017.1 |
| 20260831044003 | 70 | 248 | 3.0 | 7.0 | 0.17 | 0.17 | 0.17 | 93 | 1017.2 |
| 20260831043003 | 70 | 210 | 2.0 | 7.0 | 0.17 | 0.17 | 0.17 | 93 | 1017.2 |
| 20260831042003 | 70 | 184 | 2.0 | 7.0 | 0.16 | 0.16 | 0.16 | 93 | 1017.1 |
| 20260831041004 | 70 | 230 | 4.0 | 7.0 | 0.15 | 0.15 | 0.15 | 93 | 1017.3 |
| 20260831040003 | 70 | 189 | 4.0 | 7.0 | 0.00 | 0.00 | 0.00 | 92 | 1017.4 |
| 20260831035024 | 70 | 212 | 3.0 | 5.0 | 0.00 | 0.00 | 0.00 | 91 | 1017.3 |
| 20260831034003 | 70 | 62 | 1.0 | 5.0 | 0.00 | 0.00 | 0.00 | 91 | 1017.2 |
| 20260831033024 | 70 | 181 | 1.0 | 7.0 | 0.00 | 0.00 | 0.00 | 91 | 1017.3 |
| 20260831032003 | 70 | 185 | 3.0 | 7.0 | 0.00 | 0.00 | 0.00 | 92 | 1017.3 |
| 20260831031003 | 70 | 213 | 4.0 | 14.0 | 0.00 | 0.00 | 0.00 | 92 | 1017.5 |
| 20260831030003 | 70 | 233 | 4.0 | 14.0 | 0.00 | 0.00 | 0.00 | 92 | 1017.6 |
| 20260831025003 | 70 | 210 | 4.0 | 8.0 | 0.00 | 0.00 | 0.00 | 91 | 1017.4 |
| 20260831024003 | 70 | 221 | 4.0 | 10.0 | 0.00 | 0.00 | 0.00 | 91 | 1017.6 |
| 20260831023003 | 70 | 212 | 5.0 | 13.0 | 0.00 | 0.00 | 0.00 | 90 | 1017.3 |
| 20260831022024 | 71 | 184 | 5.0 | 13.0 | 0.00 | 0.00 | 0.00 | 89 | 1017.3 |
| 20260831021003 | 71 | 217 | 5.0 | 9.0 | 0.00 | 0.00 | 0.00 | 88 | 1017.6 |
| 20260831020003 | 71 | 216 | 4.0 | 9.0 | 0.00 | 0.00 | 0.00 | 86 | 1017.6 |
| 20260831015003 | 72 | 239 | 3.0 | 8.0 | 0.00 | 0.00 | 0.00 | 86 | 1017.5 |
| 20260831014024 | 72 | 236 | 4.0 | 8.0 | 0.00 | 0.00 | 0.00 | 85 | 1017.5 |
| 20260831013003 | 72 | 217 | 5.0 | 11.0 | 0.00 | 0.00 | 0.00 | 85 | 1017.4 |
| 20260831012003 | 72 | 208 | 3.0 | 12.0 | 0.00 | 0.00 | 0.00 | 84 | 1017.3 |
| 20260831011003 | 72 | 232 | 5.0 | 12.0 | 0.00 | 0.00 | 0.00 | 85 | 1017.4 |
| 20260831010024 | 72 | 213 | 3.0 | 9.0 | 0.00 | 0.00 | 0.00 | 85 | 1017.2 |
| 20260831005003 | 72 | 224 | 5.0 | 10.0 | 0.00 | 0.00 | 0.00 | 85 | 1017.5 |
| 20260831004003 | 72 | 232 | 4.0 | 10.0 | 0.00 | 0.00 | 0.00 | 84 | 1017.3 |
| 20260831003004 | 72 | 210 | 4.0 | 10.0 | 0.00 | 0.00 | 0.00 | 83 | 1017.3 |
| 20260831002003 | 73 | 203 | 4.0 | 8.0 | 0.00 | 0.00 | 0.00 | 82 | 1017.2 |
| 20260831001024 | 73 | 214 | 3.0 | 8.0 | 0.00 | 0.00 | 0.00 | 81 | 1017.1 |
| 20260831000003 | 73 | 215 | 3.0 | 8.0 | 0.00 | 0.00 | 0.00 | 80 | 1016.8 |
| 20260830235003 | 73 | 186 | 2.0 | 11.0 | 0.00 | 0.00 | 0.00 | 80 | 1016.8 |
| 20260830234003 | 73 | 212 | 3.0 | 13.0 | 0.00 | 0.00 | 0.00 | 79 | 1016.8 |
| 20260830233003 | 73 | 211 | 5.0 | 13.0 | 0.00 | 0.00 | 0.00 | 78 | 1017.0 |
| 20260830232003 | 74 | 215 | 3.0 | 7.0 | 0.00 | 0.00 | 0.00 | 77 | 1017.0 |
| 20260830231003 | 74 | 206 | 3.0 | 7.0 | 0.00 | 0.00 | 0.00 | 76 | 1017.0 |
| 20260830230003 | 74 | 201 | 3.0 | 10.0 | 0.00 | 0.00 | 0.00 | 75 | 1017.1 |
| 20260830225003 | 74 | 191 | 3.0 | 10.0 | 0.00 | 0.00 | 0.00 | 75 | 1017.2 |
| 20260830224003 | 75 | 210 | 4.0 | 13.0 | 0.00 | 0.00 | 0.00 | 74 | 1017.2 |
| 20260830223024 | 75 | 196 | 3.0 | 13.0 | 0.00 | 0.00 | 0.00 | 73 | 1017.4 |
| 20260830222003 | 75 | 222 | 4.0 | 9.0 | 0.00 | 0.00 | 0.00 | 72 | 1017.6 |
| 20260830221003 | 76 | 207 | 6.0 | 8.0 | 0.00 | 0.00 | 0.00 | 71 | 1017.1 |
| 20260830220003 | 76 | 218 | 2.0 | 8.0 | 0.00 | 0.00 | 0.00 | 69 | 1017.1 |
| 20260830215003 | 76 | 197 | 4.0 | 8.0 | 0.00 | 0.00 | 0.00 | 68 | 1017.4 |
| 20260830214003 | 76 | 234 | 2.0 | 8.0 | 0.00 | 0.00 | 0.00 | 68 | 1017.5 |
| 20260830213003 | 76 | 209 | 3.0 | 10.0 | 0.00 | 0.00 | 0.00 | 68 | 1017.6 |
| 20260830212003 | 77 | 247 | 5.0 | 10.0 | 0.00 | 0.00 | 0.00 | 68 | 1017.2 |
| 20260830211003 | 77 | 212 | 4.0 | 10.0 | 0.00 | 0.00 | 0.00 | 67 | 1017.3 |
| 20260830210003 | 78 | 223 | 5.0 | 11.0 | 0.00 | 0.00 | 0.00 | 66 | 1017.5 |
| 20260830205003 | 78 | 200 | 5.0 | 11.0 | 0.00 | 0.00 | 0.00 | 64 | 1017.5 |
| 20260830204004 | 0 | 0 | 6.0 | 10.0 | 0.00 | 0.00 | 0.00 | 1 | |
| 20260830203003 | 80 | 265 | 3.0 | 10.0 | 0.00 | 0.00 | 0.00 | 61 | 1017.4 |
| 20260830202003 | 80 | 238 | 2.0 | 7.0 | 0.00 | 0.00 | 0.00 | 63 | 1017.4 |
| 20260830201003 | 80 | 245 | 3.0 | 7.0 | 0.00 | 0.00 | 0.00 | 64 | 1017.5 |
| 20260830200003 | 80 | 211 | 3.0 | 7.0 | 0.00 | 0.00 | 0.00 | 63 | 1017.6 |
| 20260830195003 | 81 | 237 | 3.0 | 9.0 | 0.00 | 0.00 | 0.00 | 64 | 1017.6 |
| 20260830194003 | 81 | 205 | 5.0 | 9.0 | 0.00 | 0.00 | 0.00 | 64 | 1017.8 |
| 20260830193003 | 82 | 192 | 3.0 | 8.0 | 0.00 | 0.00 | 0.00 | 61 | 1018.0 |
| 20260830192003 | 83 | 177 | 4.0 | 6.0 | 0.00 | 0.00 | 0.00 | 59 | 1017.8 |